Theta_e
328 327 327 326 325 323 321 319 317 316 314 313 312 311 309 308 307 308 310 310 311 312 313 314 316 318 303 293 292 301 313 307 303 302 299 298 296 294 290 290 290 287 287 289 290 290 288
328 327 327 326 325 323 322 320 318 317 316 313 313 311 310 308 307 307 309 310 311 312 313 314 316 316 296 290 299 301 301 301 299 299 296 297 296 295 290 288 288 287 287 287 289 289 289
328 328 327 326 325 323 321 320 319 316 316 314 314 312 310 308 307 307 308 309 311 312 312 314 315 304 294 292 298 299 300 298 298 299 295 297 296 294 291 287 289 287 285 286 287 288 286
328 328 327 326 325 323 321 320 319 317 316 314 312 312 310 308 307 306 307 309 311 311 312 314 314 296 289 299 296 299 300 298 300 298 297 297 297 293 291 290 288 285 283 279 285 287 287
327 327 327 326 325 323 321 320 319 318 316 314 312 312 310 308 307 306 307 309 310 312 312 313 297 292 287 302 296 298 299 296 298 297 297 299 295 289 288 283 280 280 276 278 281 287 286
322 327 326 326 325 323 322 320 319 317 316 314 313 312 310 309 307 306 307 309 310 308 306 302 295 287 289 290 294 296 297 298 294 294 294 293 288 284 283 280 277 277 278 279 278 283 283
316 318 325 325 324 323 322 320 319 318 316 314 313 312 310 309 307 306 303 298 291 290 294 287 289 289 291 293 296 294 296 295 293 291 283 288 282 280 283 283 283 282 280 278 279 283 282
313 314 315 324 324 323 321 320 319 319 317 315 313 312 311 309 307 305 299 291 291 293 285 293 293 293 294 295 290 293 297 288 288 283 285 282 280 284 286 286 283 282 279 278 280 283 282
311 311 312 315 323 323 321 320 319 318 317 315 313 312 311 309 306 300 295 297 299 297 290 290 293 292 291 294 289 290 293 289 286 283 282 280 283 287 286 283 282 280 279 278 279 280 281
308 310 310 311 313 321 321 319 318 317 316 314 313 312 311 308 296 295 294 300 299 297 283 287 288 291 293 293 287 294 293 289 286 283 285 283 286 284 282 282 282 279 282 282 280 277 273
306 307 309 309 310 312 319 318 317 316 315 313 313 312 311 306 293 293 295 299 297 296 271 287 287 296 293 288 288 287 293 289 284 284 283 280 281 281 281 282 284 280 284 281 280 277 275
303 305 306 308 308 310 311 318 317 316 315 313 312 311 310 301 298 299 299 298 297 280 271 281 287 286 286 287 287 289 288 290 289 285 283 281 285 284 282 284 284 285 282 281 278 276 266
302 303 304 305 307 309 309 313 317 316 315 313 312 311 307 302 295 299 298 292 276 271 284 280 282 285 283 283 284 284 283 282 280 277 277 280 280 283 285 281 284 281 278 267 266 263 268
302 302 302 304 303 307 309 309 315 316 315 313 312 310 306 300 299 299 297 284 268 273 279 284 284 283 281 284 282 283 280 279 282 280 277 276 275 281 284 280 280 279 278 271 265 266 271
303 302 302 302 304 303 305 308 309 313 314 312 311 305 299 298 300 298 289 275 275 277 283 283 283 279 279 282 282 281 278 277 281 282 280 276 276 281 282 283 281 279 275 279 268 262 267
304 304 303 302 302 303 302 304 307 308 313 312 304 299 297 298 301 295 284 280 278 287 286 284 282 280 276 278 279 279 278 282 282 284 283 281 275 279 281 283 281 279 280 273 269 265 263
305 305 305 304 303 304 303 304 306 307 313 311 301 294 297 301 299 289 278 277 281 289 288 285 282 278 280 277 280 279 280 283 284 282 285 281 279 276 279 278 277 275 274 275 275 274 268
306 306 306 305 305 303 304 303 303 307 308 308 297 286 296 299 283 284 281 280 288 288 289 287 286 283 280 281 280 280 281 281 285 284 281 283 278 272 275 277 279 278 277 277 271 270 270
306 306 306 306 305 304 304 304 302 303 307 304 292 285 296 295 282 281 282 282 284 286 286 286 285 287 283 280 280 281 282 283 284 283 282 282 274 268 273 275 275 276 277 277 271 270 268
305 306 306 306 306 305 304 304 303 302 306 300 287 280 283 285 288 286 285 280 281 285 286 287 286 286 282 279 281 280 281 282 284 284 290 287 276 275 276 277 275 274 276 278 273 267 269
304 304 305 305 305 305 305 304 303 302 302 299 287 282 284 279 283 286 288 285 281 280 285 288 284 284 283 278 278 279 280 281 284 286 282 281 275 272 272 275 275 277 276 277 276 278 275
304 304 304 305 305 305 305 304 304 303 301 290 283 282 283 282 285 284 287 286 283 282 282 282 282 283 284 285 285 279 280 281 282 282 280 279 272 272 270 274 275 274 277 277 278 276 277
303 304 304 304 304 304 305 305 304 303 300 289 285 285 286 286 283 283 284 287 286 286 284 287 287 285 284 288 286 288 286 286 286 282 280 278 274 271 268 272 270 270 274 276 276 275 278
302 303 303 304 304 304 304 304 304 304 301 288 288 287 284 282 283 283 285 287 288 286 286 285 286 286 286 290 290 287 284 282 281 279 282 276 277 276 267 267 269 280 278 282 281 281 280
302 302 303 303 303 303 304 304 304 304 303 290 289 288 285 281 284 284 285 286 287 288 286 285 286 289 292 289 285 283 282 282 276 276 275 277 279 275 275 268 279 277 276 276 276 279 283
300 301 302 302 302 302 303 303 304 303 303 293 290 290 285 282 281 286 284 285 284 285 285 283 285 291 290 286 285 280 279 283 279 271 275 278 278 282 268 270 272 280 284 280 283 279 287
297 300 301 301 301 302 302 303 303 303 303 296 292 290 285 282 281 287 285 284 287 286 285 282 283 285 287 285 282 280 281 283 276 276 272 271 272 276 277 277 278 283 278 284 277 282 287
296 299 300 301 301 301 302 302 302 303 303 297 292 293 287 277 277 286 287 285 285 287 284 283 284 284 285 282 282 283 282 282 275 277 276 276 275 276 274 274 275 280 278 284 289 283 282
297 298 300 300 300 301 301 301 302 302 302 300 289 293 291 285 280 285 286 289 292 291 287 286 285 285 286 284 283 285 282 282 284 279 279 278 282 281 282 282 281 282 288 285 282 284 280
Wind_Speed
23 22 21 20 18 19 17 15 15 14 12 12 9 7 5 3 3 5 6 6 7 7 7 8 10 10 2 4 1 5 13 12 6 2 4 2 4 4 6 5 4 6 1 7 8 13 9
24 24 22 22 21 19 18 17 15 15 13 12 9 9 6 5 3 4 5 6 7 6 7 7 9 9 1 2 2 6 9 7 5 3 4 6 4 5 8 6 6 5 8 4 7 7 5
25 24 24 24 23 20 21 19 16 17 14 12 10 10 8 6 4 3 5 7 7 7 7 7 7 2 4 2 3 7 6 4 5 1 4 4 2 6 5 7 4 3 8 6 4 2 4
25 25 25 25 24 22 21 21 18 17 15 13 13 11 9 7 5 3 5 6 8 8 6 7 5 0 2 1 2 4 7 4 7 4 5 3 7 9 5 6 6 6 6 4 3 4 4
25 25 26 25 26 25 23 22 21 18 18 15 14 12 11 8 5 4 5 6 8 9 7 6 0 2 1 2 2 4 4 3 5 3 5 3 8 5 4 7 6 3 4 4 1 7 6
12 25 26 27 27 26 24 24 23 22 19 17 13 14 11 9 5 5 6 7 5 7 1 1 1 2 1 4 1 2 3 3 3 3 5 7 7 5 3 3 6 7 4 3 6 7 5
15 12 25 28 27 27 26 24 24 23 21 18 15 15 13 9 5 4 4 4 6 4 6 2 4 3 2 1 0 3 1 2 2 5 3 3 5 8 13 6 3 7 5 5 1 2 5
11 13 15 20 29 28 28 26 25 25 23 20 18 16 13 11 7 2 1 3 4 3 3 1 1 3 2 3 3 1 2 5 3 4 4 5 3 3 7 3 2 5 5 2 1 2 2
9 10 15 16 21 29 28 28 27 26 24 22 19 17 14 11 8 3 2 5 2 2 3 3 3 4 3 4 3 5 1 3 4 5 2 4 0 1 3 4 3 1 6 5 2 3 2
11 11 12 14 18 18 29 29 29 28 26 24 22 21 17 13 3 5 3 4 1 2 6 5 5 4 3 5 1 0 2 2 2 6 5 3 2 1 3 3 3 3 3 6 7 5 3
9 10 11 12 14 16 16 30 29 29 27 26 25 25 21 15 5 5 4 7 4 4 1 2 4 0 3 5 7 2 1 2 6 4 5 4 3 2 3 3 0 2 4 5 4 4 3
8 8 10 11 13 15 18 25 29 31 30 29 28 26 24 6 1 3 4 7 5 9 11 3 4 5 5 2 1 4 3 3 5 6 6 3 2 2 2 3 2 7 7 9 6 3 3
7 8 6 8 11 13 14 10 27 28 30 31 30 29 21 8 4 5 4 5 7 7 3 6 6 7 1 4 2 3 7 6 8 7 4 2 1 0 3 6 5 4 6 4 6 5 8
10 7 8 5 6 10 12 14 13 30 31 32 32 30 14 5 4 6 3 7 6 6 8 3 6 8 7 6 2 4 6 6 5 4 5 8 4 8 4 2 7 5 5 8 9 4 4
9 9 7 8 4 5 10 14 12 9 31 31 30 10 9 6 8 2 6 7 9 9 10 12 5 6 3 3 6 4 6 6 10 10 8 6 2 1 3 3 2 6 4 3 8 2 4
13 12 10 9 9 4 3 8 14 17 26 32 10 6 5 11 8 7 4 17 5 3 8 4 9 5 11 9 8 9 10 7 7 12 3 9 6 1 2 5 0 3 4 4 4 1 5
16 15 12 10 9 7 5 4 8 13 24 34 8 9 9 10 6 9 11 10 6 6 5 9 10 7 5 10 9 8 10 4 7 7 5 5 5 2 3 8 10 3 3 3 3 5 7
16 15 15 12 11 10 8 6 6 10 5 23 7 4 14 17 6 4 15 10 9 8 7 6 5 5 10 12 9 7 14 4 7 11 11 5 6 5 7 2 4 4 7 7 7 6 3
19 18 17 16 14 13 11 10 7 8 10 5 5 5 6 14 10 11 6 7 5 8 8 8 8 4 4 9 5 7 7 3 2 7 13 10 1 4 7 4 1 7 7 4 5 4 8
22 21 18 18 18 16 14 14 11 9 12 3 5 5 1 5 3 21 22 11 18 7 7 7 7 5 6 3 1 7 6 2 2 2 3 8 4 9 12 6 8 8 8 15 8 5 6
25 24 22 21 20 19 18 16 16 12 10 1 2 5 6 10 19 15 19 16 19 17 9 12 6 9 11 6 3 5 2 3 5 3 4 5 6 4 4 2 3 4 8 20 20 20 11
28 27 26 24 23 22 22 20 19 14 8 2 5 4 2 1 11 14 17 20 31 26 18 10 12 15 12 16 14 13 10 5 8 2 4 1 3 3 5 1 3 5 7 13 16 6 14
30 30 29 28 26 24 24 22 20 20 13 3 1 1 2 6 11 12 20 34 37 27 15 28 28 10 11 16 6 9 2 10 14 15 11 8 7 4 7 4 4 9 16 14 8 7 12
31 32 31 30 28 27 25 25 23 24 17 4 3 3 3 2 11 19 20 22 25 24 28 17 12 17 7 21 16 12 13 10 7 5 5 9 8 2 3 3 11 3 5 20 25 13 20
31 32 32 32 32 30 28 27 27 26 25 4 4 3 3 3 10 11 21 17 17 14 15 12 8 5 17 7 5 4 1 3 3 3 2 1 6 4 4 7 12 4 5 12 11 18 27
30 32 32 33 32 31 30 29 28 29 29 8 3 4 3 2 5 3 8 16 13 13 10 3 2 13 9 5 6 16 15 13 10 1 4 2 4 8 5 6 17 3 16 9 9 21 16
27 32 32 33 33 32 30 30 30 31 30 13 5 8 5 4 5 6 4 4 6 4 3 6 8 3 2 11 11 10 13 8 10 16 9 3 1 16 13 14 13 7 12 9 10 8 12
28 29 31 31 32 32 31 30 30 32 32 16 6 12 8 4 5 8 8 6 1 6 8 7 8 4 7 14 12 8 8 10 4 6 15 16 15 11 3 6 30 11 6 24 13 4 7
33 31 30 29 31 30 30 29 30 32 34 27 5 11 5 4 4 2 3 5 14 12 4 12 7 13 8 10 7 8 5 8 15 16 3 14 14 15 18 15 2 13 11 11 5 8 7
Wind_Direction
200 200 198 194 196 181 186 203 217 212 211 218 207 203 220 241 286 309 322 333 337 334 331 332 331 330 321 55 329 301 325 324 330 2 27 33 76 110 105 98 65 75 108 41 78 81 69
203 200 200 197 196 190 183 194 212 215 205 219 205 201 207 240 238 289 313 325 328 326 323 327 327 329 293 78 301 316 326 331 12 27 22 24 122 116 87 61 64 76 74 78 45 80 89
207 204 202 201 200 194 183 187 205 219 203 205 207 198 205 220 246 280 314 318 316 311 313 317 324 344 59 144 324 322 339 336 343 48 82 357 101 74 121 88 146 81 73 47 12 71 99
210 208 204 203 201 199 189 183 193 212 201 200 214 193 201 219 235 265 293 302 304 298 302 304 318 344 119 271 304 340 337 343 358 43 92 66 75 91 77 135 51 77 64 118 251 144 191
208 210 207 204 204 201 194 188 186 199 196 195 210 189 190 214 232 259 286 303 306 302 291 301 354 147 145 316 71 312 20 22 317 1 36 77 69 90 39 92 55 8 172 174 258 206 154
343 216 210 208 206 203 199 190 187 192 192 186 194 186 190 197 227 265 290 295 309 327 324 284 359 27 220 185 196 345 340 20 36 19 33 49 56 79 53 83 198 185 186 174 199 218 175
28 342 225 211 206 203 199 196 188 186 185 183 186 187 187 187 210 276 330 84 38 357 38 229 150 120 119 82 188 44 33 57 59 44 116 30 100 188 193 174 135 139 138 166 211 194 166
10 3 347 234 207 204 198 193 187 185 181 180 181 182 188 180 175 226 61 166 195 158 128 332 106 73 112 166 92 339 9 128 139 168 122 40 217 195 165 206 189 129 123 168 310 190 171
6 360 359 339 235 203 198 190 184 185 182 180 170 173 183 172 151 105 219 226 90 135 89 231 195 160 188 152 135 182 325 142 129 131 168 156 3 92 121 165 156 108 170 174 188 116 303
355 6 4 0 8 230 197 191 184 183 180 177 167 165 168 152 149 165 214 222 188 111 59 225 227 231 124 141 117 338 337 145 73 149 129 104 355 139 115 139 110 210 183 137 128 106 220
359 349 7 6 357 342 229 188 187 180 179 173 168 161 161 166 143 170 191 149 163 52 13 180 168 176 166 155 133 329 294 31 130 119 120 212 134 135 130 152 209 198 104 114 113 96 50
334 348 351 6 1 354 346 203 184 181 177 171 167 162 155 172 324 249 115 115 57 51 243 166 121 173 127 130 135 138 119 42 141 88 35 96 94 51 121 77 4 146 71 43 46 54 360
309 333 336 347 359 351 350 319 193 186 178 171 165 161 156 143 198 158 138 71 59 173 292 202 180 161 121 149 141 163 158 165 159 122 188 53 104 237 148 78 9 74 83 7 353 4 224
298 304 319 317 348 344 4 337 245 186 178 172 164 157 163 155 137 141 102 58 187 209 188 157 118 109 170 155 214 172 125 178 253 94 127 155 285 168 175 204 180 170 160 161 207 199 253
270 287 283 301 285 325 342 347 7 216 177 169 158 148 151 175 142 100 109 201 209 196 160 139 73 106 229 216 151 151 204 207 199 187 153 139 161 117 77 66 109 189 193 159 99 47 50
268 265 276 273 292 265 346 310 324 330 189 156 150 145 170 154 146 96 77 223 216 168 119 125 158 159 174 188 155 177 171 207 211 187 162 202 100 9 142 117 3 180 159 94 357 195 264
255 258 253 259 267 244 268 321 324 314 189 163 148 154 140 138 104 128 209 219 209 203 167 150 183 144 186 174 183 200 193 252 198 172 120 135 106 285 145 203 165 152 213 66 135 164 184
256 252 249 241 237 258 236 260 286 326 263 167 142 167 160 139 139 182 207 194 177 188 197 218 123 113 171 166 166 207 204 252 155 144 170 171 113 161 209 198 150 206 202 160 137 235 265
257 249 241 237 233 232 226 236 241 278 304 182 142 112 187 162 177 198 157 225 245 170 177 180 194 180 151 168 153 203 187 36 184 158 162 179 236 78 355 354 44 212 188 150 109 106 195
262 258 250 237 229 225 225 222 229 224 278 147 118 113 158 203 236 197 195 193 207 192 184 167 161 117 119 128 326 169 166 36 1 110 95 100 132 164 190 187 133 194 187 181 147 140 178
258 254 253 245 238 226 220 219 221 222 224 24 118 182 176 198 215 204 190 190 200 206 203 164 201 194 161 137 109 151 109 127 32 33 49 124 195 155 239 228 179 205 173 186 201 215 188
250 246 244 241 240 231 223 214 209 216 167 60 165 162 166 134 212 196 203 209 200 213 174 201 222 189 183 193 181 183 140 188 179 68 146 8 226 110 301 278 185 240 206 207 216 265 253
245 245 240 235 232 230 228 216 208 199 171 139 150 115 187 192 188 193 210 213 211 193 228 207 206 160 205 214 143 155 191 151 159 158 171 156 138 105 256 30 21 288 210 192 199 204 199
243 240 239 235 228 224 222 221 212 198 184 133 156 133 192 214 189 211 211 217 230 204 220 209 191 202 162 112 90 55 53 60 68 31 131 150 136 136 192 53 253 227 197 197 214 205 222
246 240 236 234 233 227 221 216 213 205 187 126 154 166 167 260 202 214 221 220 232 248 220 223 199 216 150 84 89 108 60 2 341 353 348 95 141 147 182 205 291 231 186 159 168 238 230
261 243 237 233 229 227 221 217 212 210 195 163 160 131 158 154 221 224 201 214 212 211 216 199 20 159 138 117 165 206 201 197 201 55 343 55 28 186 129 213 237 38 185 155 97 265 228
274 247 236 230 227 223 219 216 212 209 200 176 162 150 124 228 228 166 194 178 148 162 193 128 147 196 200 178 198 198 211 166 199 188 159 147 78 209 203 238 270 192 146 129 164 245 201
275 253 237 227 225 222 217 214 211 209 201 182 169 177 164 174 269 193 200 179 327 190 182 141 146 198 183 197 196 186 206 200 156 170 175 173 175 195 146 206 256 140 148 185 210 194 172
268 249 227 223 221 220 218 216 214 209 201 186 170 180 139 148 224 230 256 275 205 202 155 189 182 157 179 179 186 199 205 172 204 220 161 203 194 187 190 219 113 187 199 212 162 163 193